Location: Unspecified
(0.0000°N, 0.0000°E)
Time: 00:58:20
(UTC+00:00)

Courier 1B Rocket - Pass Details

Date: 22 December 2018
Orbit: 920 x 1202 km, 28.3° (Epoch: 16 January)

Event Time Altitude Azimuth Distance (km) Brightness Sun altitude
Rises 16:11:14 0° 274° (W) 3,976 9.1 24.5°
Reaches altitude 10° 16:14:25 10° 263° (W) 3,054 9.1 23.8°
Maximum altitude 16:20:47 28° 206° (SSW) 2,044 7.8 22.3°
Drops below altitude 10° 16:27:18 10° 150° (SSE) 3,133 7.7 20.9°
Sets 16:30:39 0° 139° (SE) 4,095 8.1 20.1°
